View from above orbital plane
|
View from above satellite
|
Ground track
|
The orbit data is extracted from the following two-line orbital elements,
1 13067U 82013A 21019.80267798 .00000742 00000-0 32193-4 0 9996
2 13067 81.1853 41.8364 0004444 77.1248 283.0480 15.21122945126945
Epoch (UTC): | 19 January 2021 19:15:51 |
Eccentricity: | 0.0004444 |
inclination: | 81.1853° |
perigee height: | 499 km |
apogee height: | 505 km |
right ascension of ascending node: | 41.8364° |
argument of perigee: | 77.1248° |
revolutions per day: | 15.21122945 |
mean anomaly at epoch: | 283.0480° |
orbit number at epoch: | 12694 |
The dashed part of the orbit path shows where the satellite is in the earth's shadow,
|
|